| time (UTC) | temp F | wind direction | speed MPH | gust MPH | rain 1hr in | rain 24hr in | rain mn in | humidity % | barometer mb |
| 20260505050800 | 62 | 257 | 0.0 | 1.0 | 0.00 | 0.00 | 0.00 | 68 | 1015.6 |
| 20260505050700 | 62 | 257 | 0.0 | 1.0 | 0.00 | 0.00 | 0.00 | 68 | 1015.6 |
| 20260505050601 | 62 | 257 | 0.0 | 1.0 | 0.00 | 0.00 | 0.00 | 68 | 1015.6 |
| 20260505050500 | 62 | 259 | 0.0 | 1.0 | 0.00 | 0.00 | 0.00 | 68 | 1015.6 |
| 20260505050400 | 62 | 259 | 0.0 | 1.0 | 0.00 | 0.00 | 0.00 | 68 | 1015.5 |
| 20260505050200 | 62 | 259 | 0.0 | 1.0 | 0.00 | 0.00 | 0.00 | 68 | 1015.6 |
| 20260505041700 | 63 | 253 | 0.0 | 1.0 | 0.00 | 0.00 | 0.00 | 64 | 1015.7 |
| 20260505041559 | 63 | 248 | 0.0 | 1.0 | 0.00 | 0.00 | 0.00 | 64 | 1015.4 |
| 20260505041501 | 63 | 212 | 0.0 | 1.0 | 0.00 | 0.00 | 0.00 | 64 | 1015.6 |
| 20260505041400 | 63 | 212 | 0.0 | 1.0 | 0.00 | 0.00 | 0.00 | 64 | 1015.5 |
| 20260505041301 | 63 | 212 | 0.0 | 1.0 | 0.00 | 0.00 | 0.00 | 64 | 1015.4 |
| 20260505041200 | 63 | 214 | 0.0 | 1.0 | 0.00 | 0.00 | 0.00 | 64 | 1015.5 |
| 20260505041100 | 63 | 214 | 0.0 | 1.0 | 0.00 | 0.00 | 0.00 | 64 | 1015.5 |
| 20260505040959 | 63 | 214 | 0.0 | 1.0 | 0.00 | 0.00 | 0.00 | 64 | 1015.6 |
| 20260505040902 | 63 | 212 | 0.0 | 1.0 | 0.00 | 0.00 | 0.00 | 64 | 1015.6 |
| 20260505040701 | 63 | 258 | 0.0 | 1.0 | 0.00 | 0.00 | 0.00 | 63 | 1015.5 |
| 20260505040600 | 63 | 259 | 0.0 | 1.0 | 0.00 | 0.00 | 0.00 | 63 | 1015.6 |
| 20260505040400 | 63 | 257 | 0.0 | 1.0 | 0.00 | 0.00 | 0.00 | 63 | 1015.7 |
| 20260505040300 | 64 | 260 | 0.0 | 1.0 | 0.00 | 0.00 | 0.00 | 63 | 1015.5 |
| 20260505040203 | 64 | 262 | 0.0 | 1.0 | 0.00 | 0.00 | 0.00 | 63 | 1015.5 |
| 20260505040104 | 64 | 262 | 0.0 | 1.0 | 0.00 | 0.00 | 0.00 | 63 | 1015.6 |
| 20260505040007 | 64 | 262 | 0.0 | 1.0 | 0.00 | 0.00 | 0.00 | 63 | 1015.3 |
| 20260505035902 | 64 | 262 | 0.0 | 1.0 | 0.00 | 0.00 | 0.00 | 63 | 1015.5 |
| 20260505035802 | 64 | 262 | 0.0 | 1.0 | 0.00 | 0.00 | 0.00 | 63 | 1015.5 |
| 20260505035702 | 64 | 239 | 0.0 | 1.0 | 0.00 | 0.00 | 0.00 | 62 | 1015.5 |
| 20260505035602 | 64 | 190 | 0.0 | 1.0 | 0.00 | 0.00 | 0.00 | 62 | 1015.5 |
| 20260505035402 | 64 | 238 | 0.0 | 1.0 | 0.00 | 0.00 | 0.00 | 62 | 1015.6 |
| 20260505035204 | 64 | 232 | 0.0 | 1.0 | 0.00 | 0.00 | 0.00 | 61 | 1015.5 |
| 20260505035102 | 64 | 232 | 0.0 | 1.0 | 0.00 | 0.00 | 0.00 | 61 | 1015.5 |
| 20260505035002 | 64 | 231 | 0.0 | 1.0 | 0.00 | 0.00 | 0.00 | 61 | 1015.6 |
| 20260505034902 | 64 | 231 | 0.0 | 1.0 | 0.00 | 0.00 | 0.00 | 61 | 1015.6 |
| 20260505034802 | 64 | 224 | 0.0 | 1.0 | 0.00 | 0.00 | 0.00 | 61 | 1015.5 |
| 20260505034702 | 64 | 200 | 0.0 | 0.0 | 0.00 | 0.00 | 0.00 | 61 | 1015.6 |
| 20260505034602 | 64 | 160 | 0.0 | 0.0 | 0.00 | 0.00 | 0.00 | 61 | 1015.6 |
| 20260505034502 | 64 | 165 | 0.0 | 1.0 | 0.00 | 0.00 | 0.00 | 60 | 1015.4 |
| 20260505034403 | 64 | 192 | 0.0 | 1.0 | 0.00 | 0.00 | 0.00 | 60 | 1015.5 |
| 20260505034302 | 64 | 233 | 0.0 | 1.0 | 0.00 | 0.00 | 0.00 | 60 | 1015.6 |
| 20260505034203 | 64 | 233 | 0.0 | 1.0 | 0.00 | 0.00 | 0.00 | 60 | 1015.6 |
| 20260505034002 | 64 | 233 | 0.0 | 1.0 | 0.00 | 0.00 | 0.00 | 60 | 1015.6 |
| 20260505033902 | 64 | 233 | 0.0 | 1.0 | 0.00 | 0.00 | 0.00 | 59 | 1015.6 |
| 20260505033803 | 64 | 233 | 0.0 | 1.0 | 0.00 | 0.00 | 0.00 | 59 | 1015.6 |
| 20260505033702 | 64 | 233 | 0.0 | 1.0 | 0.00 | 0.00 | 0.00 | 59 | 1015.6 |
| 20260505033602 | 64 | 233 | 0.0 | 1.0 | 0.00 | 0.00 | 0.00 | 59 | 1015.6 |
| 20260505033503 | 64 | 232 | 0.0 | 1.0 | 0.00 | 0.00 | 0.00 | 59 | 1015.6 |
| 20260505033403 | 64 | 231 | 0.0 | 0.0 | 0.00 | 0.00 | 0.00 | 58 | 1015.5 |
| 20260505033302 | 64 | 231 | 0.0 | 1.0 | 0.00 | 0.00 | 0.00 | 58 | 1015.5 |
| 20260505033202 | 65 | 231 | 0.0 | 1.0 | 0.00 | 0.00 | 0.00 | 58 | 1015.6 |
| 20260505033103 | 65 | 232 | 0.0 | 1.0 | 0.00 | 0.00 | 0.00 | 58 | 1015.7 |
| 20260505033007 | 65 | 231 | 0.0 | 2.0 | 0.00 | 0.00 | 0.00 | 58 | 1015.4 |
| 20260505033003 | 65 | 231 | 0.0 | 2.0 | 0.00 | 0.00 | 0.00 | 58 | 1015.6 |
| 20260505032902 | 65 | 231 | 0.0 | 2.0 | 0.00 | 0.00 | 0.00 | 58 | 1015.6 |
| 20260505032803 | 65 | 231 | 0.0 | 2.0 | 0.00 | 0.00 | 0.00 | 58 | 1015.6 |
| 20260505032702 | 65 | 231 | 0.0 | 2.0 | 0.00 | 0.00 | 0.00 | 58 | 1015.6 |
| 20260505032603 | 65 | 257 | 0.0 | 2.0 | 0.00 | 0.00 | 0.00 | 57 | 1015.5 |
| 20260505032502 | 65 | 257 | 0.0 | 2.0 | 0.00 | 0.00 | 0.00 | 57 | 1015.6 |
| 20260505032402 | 65 | 238 | 0.0 | 2.0 | 0.00 | 0.00 | 0.00 | 57 | 1015.6 |
| 20260505032301 | 65 | 236 | 0.0 | 2.0 | 0.00 | 0.00 | 0.00 | 57 | 1015.6 |
| 20260505032202 | 65 | 249 | 0.0 | 1.0 | 0.00 | 0.00 | 0.00 | 57 | 1015.6 |
| 20260505032101 | 65 | 153 | 0.0 | 1.0 | 0.00 | 0.00 | 0.00 | 57 | 1015.6 |
| 20260505032002 | 65 | 152 | 0.0 | 1.0 | 0.00 | 0.00 | 0.00 | 56 | 1015.6 |
| 20260505031903 | 65 | 152 | 0.0 | 2.0 | 0.00 | 0.00 | 0.00 | 56 | 1015.6 |
| 20260505031802 | 65 | 250 | 0.0 | 2.0 | 0.00 | 0.00 | 0.00 | 56 | 1015.7 |
| 20260505031702 | 65 | 249 | 0.0 | 2.0 | 0.00 | 0.00 | 0.00 | 56 | 1015.6 |
| 20260505031602 | 65 | 249 | 0.0 | 2.0 | 0.00 | 0.00 | 0.00 | 56 | 1015.6 |
| 20260505031503 | 65 | 252 | 0.0 | 2.0 | 0.00 | 0.00 | 0.00 | 56 | 1015.4 |
| 20260505031403 | 65 | 252 | 0.0 | 2.0 | 0.00 | 0.00 | 0.00 | 56 | 1015.6 |
| 20260505031302 | 65 | 252 | 0.0 | 2.0 | 0.00 | 0.00 | 0.00 | 56 | 1015.6 |
| 20260505031202 | 65 | 252 | 0.0 | 2.0 | 0.00 | 0.00 | 0.00 | 55 | 1015.6 |
| 20260505031102 | 65 | 252 | 0.0 | 2.0 | 0.00 | 0.00 | 0.00 | 55 | 1015.7 |
| 20260505031002 | 65 | 263 | 0.0 | 1.0 | 0.00 | 0.00 | 0.00 | 55 | 1015.5 |
| 20260505030901 | 65 | 243 | 0.0 | 1.0 | 0.00 | 0.00 | 0.00 | 55 | 1015.6 |
| 20260505030802 | 65 | 243 | 0.0 | 1.0 | 0.00 | 0.00 | 0.00 | 55 | 1015.6 |
| 20260505030702 | 65 | 243 | 0.0 | 1.0 | 0.00 | 0.00 | 0.00 | 54 | 1015.6 |
| 20260505030603 | 65 | 243 | 0.0 | 0.0 | 0.00 | 0.00 | 0.00 | 54 | 1015.6 |
| 20260505030402 | 65 | 204 | 0.0 | 0.0 | 0.00 | 0.00 | 0.00 | 54 | 1015.6 |
| 20260505030303 | 65 | 205 | 0.0 | 1.0 | 0.00 | 0.00 | 0.00 | 54 | 1015.6 |
| 20260505030004 | 66 | 194 | 0.0 | 2.0 | 0.00 | 0.00 | 0.00 | 53 | 1015.5 |
| 20260505025802 | 66 | 238 | 0.0 | 2.0 | 0.00 | 0.00 | 0.00 | 53 | 1015.6 |
| 20260505025603 | 66 | 239 | 0.0 | 2.0 | 0.00 | 0.00 | 0.00 | 53 | 1015.6 |
| 20260505025502 | 66 | 235 | 0.0 | 2.0 | 0.00 | 0.00 | 0.00 | 53 | 1015.6 |
| 20260505025403 | 66 | 252 | 0.0 | 2.0 | 0.00 | 0.00 | 0.00 | 52 | 1015.5 |
| 20260505025203 | 66 | 236 | 0.0 | 2.0 | 0.00 | 0.00 | 0.00 | 52 | 1015.5 |
| 20260505025103 | 66 | 235 | 0.0 | 2.0 | 0.00 | 0.00 | 0.00 | 52 | 1015.5 |
| 20260505025002 | 66 | 233 | 0.0 | 1.0 | 0.00 | 0.00 | 0.00 | 51 | 1015.5 |
| 20260505024902 | 66 | 148 | 0.0 | 0.0 | 0.00 | 0.00 | 0.00 | 51 | 1015.4 |
| 20260505024702 | 66 | 148 | 0.0 | 0.0 | 0.00 | 0.00 | 0.00 | 51 | 1015.6 |
| 20260505024602 | 66 | 148 | 0.0 | 0.0 | 0.00 | 0.00 | 0.00 | 51 | 1015.5 |
| 20260505024504 | 66 | 148 | 0.0 | 0.0 | 0.00 | 0.00 | 0.00 | 51 | 1015.4 |
| 20260505024502 | 66 | 148 | 0.0 | 0.0 | 0.00 | 0.00 | 0.00 | 51 | 1015.6 |
| 20260505024402 | 66 | 148 | 0.0 | 1.0 | 0.00 | 0.00 | 0.00 | 51 | 1015.5 |
| 20260505024303 | 66 | 147 | 0.0 | 1.0 | 0.00 | 0.00 | 0.00 | 51 | 1015.5 |
| 20260505024203 | 66 | 146 | 0.0 | 1.0 | 0.00 | 0.00 | 0.00 | 51 | 1015.4 |
| 20260505024102 | 66 | 146 | 0.0 | 1.0 | 0.00 | 0.00 | 0.00 | 51 | 1015.4 |
| 20260505023902 | 66 | 158 | 0.0 | 1.0 | 0.00 | 0.00 | 0.00 | 50 | 1015.3 |
| 20260505023802 | 66 | 150 | 0.0 | 1.0 | 0.00 | 0.00 | 0.00 | 50 | 1015.5 |
| 20260505023702 | 66 | 150 | 0.0 | 1.0 | 0.00 | 0.00 | 0.00 | 51 | 1015.3 |
| 20260505023602 | 66 | 149 | 0.0 | 1.0 | 0.00 | 0.00 | 0.00 | 51 | 1015.4 |
| 20260505023502 | 66 | 204 | 0.0 | 1.0 | 0.00 | 0.00 | 0.00 | 50 | 1015.3 |
| 20260505023403 | 66 | 242 | 0.0 | 1.0 | 0.00 | 0.00 | 0.00 | 50 | 1015.4 |
| 20260505023302 | 66 | 242 | 0.0 | 1.0 | 0.00 | 0.00 | 0.00 | 50 | 1015.4 |
| 20260505023202 | 66 | 242 | 0.0 | 1.0 | 0.00 | 0.00 | 0.00 | 50 | 1015.3 |
| 20260505023102 | 66 | 242 | 0.0 | 1.0 | 0.00 | 0.00 | 0.00 | 50 | 1015.2 |
| 20260505023003 | 66 | 242 | 0.0 | 1.0 | 0.00 | 0.00 | 0.00 | 50 | 1015.2 |
| 20260505022902 | 66 | 242 | 0.0 | 1.0 | 0.00 | 0.00 | 0.00 | 50 | 1015.3 |
| 20260505022804 | 66 | 242 | 0.0 | 1.0 | 0.00 | 0.00 | 0.00 | 50 | 1015.3 |
| 20260505022703 | 66 | 242 | 0.0 | 1.0 | 0.00 | 0.00 | 0.00 | 50 | 1015.3 |
| 20260505022503 | 66 | 255 | 0.0 | 1.0 | 0.00 | 0.00 | 0.00 | 50 | 1015.2 |
| 20260505022304 | 66 | 255 | 0.0 | 1.0 | 0.00 | 0.00 | 0.00 | 50 | 1015.2 |
| 20260505022202 | 66 | 255 | 0.0 | 1.0 | 0.00 | 0.00 | 0.00 | 50 | 1015.2 |
| 20260505022102 | 66 | 255 | 0.0 | 1.0 | 0.00 | 0.00 | 0.00 | 50 | 1015.3 |
| 20260505022001 | 66 | 255 | 0.0 | 1.0 | 0.00 | 0.00 | 0.00 | 50 | 1015.2 |
| 20260505021903 | 66 | 256 | 0.0 | 1.0 | 0.00 | 0.00 | 0.00 | 50 | 1015.1 |
| 20260505021802 | 66 | 255 | 0.0 | 1.0 | 0.00 | 0.00 | 0.00 | 50 | 1015.1 |
| 20260505021602 | 66 | 255 | 0.0 | 1.0 | 0.00 | 0.00 | 0.00 | 49 | 1015.0 |
| 20260505021504 | 66 | 255 | 0.0 | 1.0 | 0.00 | 0.00 | 0.00 | 50 | 1015.0 |
| 20260505021402 | 66 | 255 | 0.0 | 1.0 | 0.00 | 0.00 | 0.00 | 50 | 1015.0 |
| 20260505021302 | 66 | 255 | 0.0 | 1.0 | 0.00 | 0.00 | 0.00 | 50 | 1015.1 |
| 20260505021204 | 67 | 253 | 0.0 | 1.0 | 0.00 | 0.00 | 0.00 | 49 | 1015.1 |
| 20260505021103 | 67 | 255 | 0.0 | 0.0 | 0.00 | 0.00 | 0.00 | 49 | 1015.1 |
| 20260505021005 | 67 | 253 | 0.0 | 0.0 | 0.00 | 0.00 | 0.00 | 49 | 1015.1 |
| 20260505020902 | 67 | 255 | 0.0 | 0.0 | 0.00 | 0.00 | 0.00 | 49 | 1015.0 |
| 20260505020803 | 67 | 255 | 0.0 | 0.0 | 0.00 | 0.00 | 0.00 | 49 | 1015.0 |
| 20260505020702 | 67 | 253 | 0.0 | 0.0 | 0.00 | 0.00 | 0.00 | 49 | 1015.0 |
| 20260505020502 | 67 | 253 | 0.0 | 0.0 | 0.00 | 0.00 | 0.00 | 49 | 1015.0 |
| 20260505020402 | 67 | 253 | 0.0 | 1.0 | 0.00 | 0.00 | 0.00 | 49 | 1015.1 |
| 20260505020203 | 67 | 253 | 0.0 | 1.0 | 0.00 | 0.00 | 0.00 | 49 | 1015.1 |
| 20260505020104 | 67 | 253 | 0.0 | 1.0 | 0.00 | 0.00 | 0.00 | 49 | 1015.0 |
| 20260505020002 | 67 | 253 | 0.0 | 1.0 | 0.00 | 0.00 | 0.00 | 49 | 1015.0 |
| 20260505015802 | 67 | 253 | 0.0 | 1.0 | 0.00 | 0.00 | 0.00 | 49 | 1015.1 |
| 20260505015702 | 67 | 253 | 0.0 | 1.0 | 0.00 | 0.00 | 0.00 | 50 | 1015.0 |
| 20260505015604 | 67 | 253 | 0.0 | 1.0 | 0.00 | 0.00 | 0.00 | 49 | 1015.0 |
| 20260505015503 | 67 | 253 | 0.0 | 1.0 | 0.00 | 0.00 | 0.00 | 49 | 1015.0 |
| 20260505015403 | 67 | 252 | 0.0 | 1.0 | 0.00 | 0.00 | 0.00 | 49 | 1015.0 |
| 20260505015303 | 67 | 250 | 0.0 | 1.0 | 0.00 | 0.00 | 0.00 | 49 | 1015.0 |
| 20260505015202 | 67 | 250 | 0.0 | 1.0 | 0.00 | 0.00 | 0.00 | 49 | 1015.1 |
| 20260505015101 | 67 | 249 | 0.0 | 1.0 | 0.00 | 0.00 | 0.00 | 49 | 1015.0 |
| 20260505014903 | 67 | 249 | 0.0 | 1.0 | 0.00 | 0.00 | 0.00 | 50 | 1014.9 |
| 20260505014803 | 67 | 250 | 0.0 | 0.0 | 0.00 | 0.00 | 0.00 | 50 | 1015.0 |
| 20260505014702 | 67 | 250 | 0.0 | 0.0 | 0.00 | 0.00 | 0.00 | 49 | 1015.0 |
| 20260505014603 | 67 | 250 | 0.0 | 0.0 | 0.00 | 0.00 | 0.00 | 49 | 1014.9 |
| 20260505014507 | 67 | 250 | 0.0 | 0.0 | 0.00 | 0.00 | 0.00 | 49 | 1014.8 |
| 20260505014502 | 67 | 250 | 0.0 | 0.0 | 0.00 | 0.00 | 0.00 | 49 | 1014.9 |
| 20260505014303 | 67 | 252 | 0.0 | 0.0 | 0.00 | 0.00 | 0.00 | 49 | 1014.9 |
| 20260505014202 | 67 | 252 | 0.0 | 0.0 | 0.00 | 0.00 | 0.00 | 49 | 1014.8 |
| 20260505014103 | 67 | 250 | 0.0 | 0.0 | 0.00 | 0.00 | 0.00 | 49 | 1014.8 |
| 20260505014003 | 67 | 251 | 0.0 | 0.0 | 0.00 | 0.00 | 0.00 | 49 | 1014.7 |
| 20260505013902 | 67 | 252 | 0.0 | 0.0 | 0.00 | 0.00 | 0.00 | 49 | 1014.7 |
| 20260505013802 | 67 | 252 | 0.0 | 0.0 | 0.00 | 0.00 | 0.00 | 49 | 1014.8 |
| 20260505013604 | 67 | 252 | 0.0 | 0.0 | 0.00 | 0.00 | 0.00 | 49 | 1014.7 |
| 20260505013301 | 67 | 252 | 0.0 | 0.0 | 0.00 | 0.00 | 0.00 | 48 | 1014.6 |
| 20260505013203 | 67 | 251 | 0.0 | 1.0 | 0.00 | 0.00 | 0.00 | 48 | 1014.7 |
| 20260505013102 | 67 | 252 | 0.0 | 1.0 | 0.00 | 0.00 | 0.00 | 48 | 1014.7 |
| 20260505013003 | 67 | 252 | 0.0 | 1.0 | 0.00 | 0.00 | 0.00 | 49 | 1014.6 |
| 20260505012802 | 67 | 252 | 0.0 | 1.0 | 0.00 | 0.00 | 0.00 | 48 | 1014.6 |
| 20260505012603 | 67 | 252 | 0.0 | 1.0 | 0.00 | 0.00 | 0.00 | 48 | 1014.5 |
| 20260505012502 | 67 | 251 | 0.0 | 1.0 | 0.00 | 0.00 | 0.00 | 48 | 1014.7 |
| 20260505012403 | 67 | 252 | 0.0 | 1.0 | 0.00 | 0.00 | 0.00 | 48 | 1014.5 |
| 20260505012203 | 67 | 252 | 0.0 | 0.0 | 0.00 | 0.00 | 0.00 | 48 | 1014.5 |
| 20260505012102 | 67 | 253 | 0.0 | 0.0 | 0.00 | 0.00 | 0.00 | 48 | 1014.4 |
| 20260505012004 | 67 | 252 | 0.0 | 0.0 | 0.00 | 0.00 | 0.00 | 48 | 1014.6 |
| 20260505011903 | 67 | 251 | 0.0 | 0.0 | 0.00 | 0.00 | 0.00 | 48 | 1014.6 |
| 20260505011802 | 68 | 251 | 0.0 | 0.0 | 0.00 | 0.00 | 0.00 | 47 | 1014.4 |
| 20260505011702 | 68 | 252 | 0.0 | 0.0 | 0.00 | 0.00 | 0.00 | 47 | 1014.5 |
| 20260505011603 | 68 | 251 | 0.0 | 0.0 | 0.00 | 0.00 | 0.00 | 47 | 1014.5 |
| 20260505011503 | 68 | 252 | 0.0 | 0.0 | 0.00 | 0.00 | 0.00 | 47 | 1014.2 |
| 20260505011403 | 68 | 253 | 0.0 | 0.0 | 0.00 | 0.00 | 0.00 | 47 | 1014.4 |
| 20260505011303 | 68 | 251 | 0.0 | 0.0 | 0.00 | 0.00 | 0.00 | 47 | 1014.5 |
| 20260505011003 | 68 | 252 | 0.0 | 0.0 | 0.00 | 0.00 | 0.00 | 47 | 1014.4 |
| 20260505010902 | 68 | 252 | 0.0 | 0.0 | 0.00 | 0.00 | 0.00 | 47 | 1014.4 |
| 20260505010804 | 68 | 251 | 0.0 | 0.0 | 0.00 | 0.00 | 0.00 | 46 | 1014.4 |
| 20260505010703 | 68 | 253 | 0.0 | 0.0 | 0.00 | 0.00 | 0.00 | 46 | 1014.4 |
| 20260505010602 | 68 | 253 | 0.0 | 0.0 | 0.00 | 0.00 | 0.00 | 46 | 1014.4 |
| 20260505010504 | 68 | 253 | 0.0 | 0.0 | 0.00 | 0.00 | 0.00 | 46 | 1014.4 |
| 20260505010403 | 68 | 252 | 0.0 | 0.0 | 0.00 | 0.00 | 0.00 | 46 | 1014.3 |
| 20260505010302 | 68 | 252 | 0.0 | 0.0 | 0.00 | 0.00 | 0.00 | 46 | 1014.3 |
| 20260505010202 | 68 | 253 | 0.0 | 0.0 | 0.00 | 0.00 | 0.00 | 46 | 1014.3 |
| 20260505010002 | 68 | 253 | 0.0 | 0.0 | 0.00 | 0.00 | 0.00 | 46 | 1014.2 |
| 20260505005901 | 68 | 253 | 0.0 | 0.0 | 0.00 | 0.00 | 0.00 | 45 | 1014.3 |
| 20260505005702 | 68 | 252 | 0.0 | 0.0 | 0.00 | 0.00 | 0.00 | 45 | 1014.3 |
| 20260505005602 | 68 | 253 | 0.0 | 0.0 | 0.00 | 0.00 | 0.00 | 45 | 1014.2 |
| 20260505005401 | 68 | 251 | 0.0 | 0.0 | 0.00 | 0.00 | 0.00 | 44 | 1014.2 |
| 20260505005303 | 68 | 252 | 0.0 | 0.0 | 0.00 | 0.00 | 0.00 | 45 | 1014.1 |
| 20260505005201 | 68 | 252 | 0.0 | 0.0 | 0.00 | 0.00 | 0.00 | 44 | 1014.2 |
| 20260505005101 | 68 | 252 | 0.0 | 0.0 | 0.00 | 0.00 | 0.00 | 44 | 1014.2 |
| 20260505004901 | 68 | 251 | 0.0 | 0.0 | 0.00 | 0.00 | 0.00 | 45 | 1014.1 |
| 20260505004802 | 68 | 252 | 0.0 | 0.0 | 0.00 | 0.00 | 0.00 | 44 | 1014.2 |
| 20260505004702 | 68 | 251 | 0.0 | 0.0 | 0.00 | 0.00 | 0.00 | 45 | 1014.0 |
| 20260505004601 | 68 | 251 | 0.0 | 0.0 | 0.00 | 0.00 | 0.00 | 44 | 1014.1 |
| 20260505004503 | 68 | 252 | 0.0 | 0.0 | 0.00 | 0.00 | 0.00 | 44 | 1014.0 |
| 20260505004501 | 68 | 252 | 0.0 | 0.0 | 0.00 | 0.00 | 0.00 | 44 | 1014.1 |
| 20260505004400 | 68 | 252 | 0.0 | 0.0 | 0.00 | 0.00 | 0.00 | 44 | 1014.1 |
| 20260505004302 | 69 | 252 | 0.0 | 0.0 | 0.00 | 0.00 | 0.00 | 45 | 1014.1 |
| 20260505004202 | 69 | 252 | 0.0 | 0.0 | 0.00 | 0.00 | 0.00 | 45 | 1014.1 |
| 20260505004101 | 69 | 252 | 0.0 | 0.0 | 0.00 | 0.00 | 0.00 | 45 | 1014.0 |
| 20260505004001 | 69 | 252 | 0.0 | 0.0 | 0.00 | 0.00 | 0.00 | 45 | 1014.0 |
| 20260505003802 | 69 | 252 | 0.0 | 0.0 | 0.00 | 0.00 | 0.00 | 44 | 1014.0 |
| 20260505003701 | 69 | 252 | 0.0 | 0.0 | 0.00 | 0.00 | 0.00 | 44 | 1014.0 |
| 20260505003601 | 69 | 251 | 0.0 | 0.0 | 0.00 | 0.00 | 0.00 | 45 | 1014.0 |
| 20260505003502 | 69 | 252 | 0.0 | 0.0 | 0.00 | 0.00 | 0.00 | 44 | 1014.0 |
| 20260505003402 | 70 | 251 | 0.0 | 0.0 | 0.00 | 0.00 | 0.00 | 44 | 1013.9 |
| 20260505003300 | 70 | 251 | 0.0 | 0.0 | 0.00 | 0.00 | 0.00 | 44 | 1013.9 |
| 20260505003203 | 70 | 252 | 0.0 | 0.0 | 0.00 | 0.00 | 0.00 | 44 | 1014.0 |
| 20260505003101 | 70 | 252 | 0.0 | 0.0 | 0.00 | 0.00 | 0.00 | 43 | 1013.9 |
| 20260505003002 | 70 | 251 | 0.0 | 0.0 | 0.00 | 0.00 | 0.00 | 43 | 1013.9 |
| 20260505002902 | 70 | 252 | 0.0 | 0.0 | 0.00 | 0.00 | 0.00 | 44 | 1013.9 |
| 20260505002801 | 70 | 252 | 0.0 | 0.0 | 0.00 | 0.00 | 0.00 | 44 | 1013.8 |
| 20260505002701 | 70 | 252 | 0.0 | 0.0 | 0.00 | 0.00 | 0.00 | 43 | 1013.8 |
| 20260505002602 | 70 | 252 | 0.0 | 0.0 | 0.00 | 0.00 | 0.00 | 43 | 1013.8 |
| 20260505002401 | 71 | 252 | 0.0 | 0.0 | 0.00 | 0.00 | 0.00 | 42 | 1013.8 |
| 20260505002303 | 71 | 251 | 0.0 | 0.0 | 0.00 | 0.00 | 0.00 | 42 | 1013.8 |
| 20260505002201 | 71 | 251 | 0.0 | 0.0 | 0.00 | 0.00 | 0.00 | 41 | 1013.8 |
| 20260505002101 | 71 | 251 | 0.0 | 0.0 | 0.00 | 0.00 | 0.00 | 41 | 1013.8 |
| 20260505002001 | 71 | 252 | 0.0 | 0.0 | 0.00 | 0.00 | 0.00 | 41 | 1013.7 |
| 20260505001901 | 71 | 252 | 0.0 | 0.0 | 0.00 | 0.00 | 0.00 | 41 | 1013.8 |
| 20260505001803 | 71 | 252 | 0.0 | 0.0 | 0.00 | 0.00 | 0.00 | 41 | 1013.8 |
| 20260505001702 | 71 | 252 | 0.0 | 0.0 | 0.00 | 0.00 | 0.00 | 40 | 1013.8 |
| 20260505001501 | 72 | 252 | 0.0 | 0.0 | 0.00 | 0.00 | 0.00 | 40 | 1013.6 |
| 20260505001401 | 72 | 252 | 0.0 | 0.0 | 0.00 | 0.00 | 0.00 | 40 | 1013.7 |
| 20260505001302 | 72 | 252 | 0.0 | 0.0 | 0.00 | 0.00 | 0.00 | 40 | 1013.7 |
| 20260505001201 | 72 | 251 | 0.0 | 0.0 | 0.00 | 0.00 | 0.00 | 39 | 1013.7 |
| 20260505001101 | 72 | 251 | 0.0 | 0.0 | 0.00 | 0.00 | 0.00 | 39 | 1013.7 |
| 20260505001001 | 72 | 252 | 0.0 | 0.0 | 0.00 | 0.00 | 0.00 | 39 | 1013.7 |
| 20260505000900 | 72 | 251 | 0.0 | 0.0 | 0.00 | 0.00 | 0.00 | 39 | 1013.6 |
| 20260505000802 | 72 | 252 | 0.0 | 0.0 | 0.00 | 0.00 | 0.00 | 39 | 1013.7 |
| 20260505000701 | 72 | 252 | 0.0 | 0.0 | 0.00 | 0.00 | 0.00 | 39 | 1013.7 |
| 20260505000601 | 72 | 251 | 0.0 | 0.0 | 0.00 | 0.00 | 0.00 | 39 | 1013.8 |
| 20260505000502 | 72 | 252 | 0.0 | 0.0 | 0.00 | 0.00 | 0.00 | 39 | 1013.8 |
| 20260505000403 | 73 | 252 | 0.0 | 0.0 | 0.00 | 0.00 | 0.00 | 39 | 1013.7 |
| 20260505000302 | 73 | 251 | 0.0 | 0.0 | 0.00 | 0.00 | 0.00 | 39 | 1013.8 |
| 20260505000001 | 73 | 252 | 0.0 | 0.0 | 0.00 | 0.00 | 0.00 | 39 | 1013.7 |
| 20260504235902 | 73 | 252 | 0.0 | 0.0 | 0.00 | 0.00 | 0.00 | 39 | 1013.7 |
| 20260504235801 | 73 | 251 | 0.0 | 0.0 | 0.00 | 0.00 | 0.00 | 38 | 1013.7 |
| 20260504235701 | 73 | 252 | 0.0 | 0.0 | 0.00 | 0.00 | 0.00 | 38 | 1013.7 |
| 20260504235602 | 73 | 252 | 0.0 | 0.0 | 0.00 | 0.00 | 0.00 | 38 | 1013.6 |
| 20260504235301 | 74 | 252 | 0.0 | 0.0 | 0.00 | 0.00 | 0.00 | 38 | 1013.6 |
| 20260504235202 | 74 | 252 | 0.0 | 0.0 | 0.00 | 0.00 | 0.00 | 39 | 1013.6 |
| 20260504235102 | 74 | 252 | 0.0 | 0.0 | 0.00 | 0.00 | 0.00 | 38 | 1013.7 |
| 20260504235001 | 74 | 252 | 0.0 | 0.0 | 0.00 | 0.00 | 0.00 | 38 | 1013.6 |
| 20260504234903 | 74 | 251 | 0.0 | 0.0 | 0.00 | 0.00 | 0.00 | 38 | 1013.6 |
| 20260504234800 | 74 | 251 | 0.0 | 0.0 | 0.00 | 0.00 | 0.00 | 38 | 1013.6 |
| 20260504234702 | 74 | 251 | 0.0 | 0.0 | 0.00 | 0.00 | 0.00 | 39 | 1013.6 |
| 20260504234602 | 74 | 252 | 0.0 | 0.0 | 0.00 | 0.00 | 0.00 | 38 | 1013.5 |
| 20260504234502 | 74 | 252 | 0.0 | 0.0 | 0.00 | 0.00 | 0.00 | 38 | 1013.5 |
| 20260504234401 | 74 | 252 | 0.0 | 0.0 | 0.00 | 0.00 | 0.00 | 38 | 1013.7 |
| 20260504234201 | 74 | 252 | 0.0 | 0.0 | 0.00 | 0.00 | 0.00 | 38 | 1013.6 |
| 20260504234001 | 75 | 252 | 0.0 | 1.0 | 0.00 | 0.00 | 0.00 | 37 | 1013.5 |
| 20260504233902 | 75 | 252 | 0.0 | 1.0 | 0.00 | 0.00 | 0.00 | 37 | 1013.6 |
| 20260504233701 | 75 | 251 | 0.0 | 1.0 | 0.00 | 0.00 | 0.00 | 37 | 1013.6 |
| 20260504233601 | 75 | 252 | 0.0 | 1.0 | 0.00 | 0.00 | 0.00 | 37 | 1013.6 |
| 20260504233301 | 75 | 251 | 0.0 | 1.0 | 0.00 | 0.00 | 0.00 | 37 | 1013.6 |
| 20260504233204 | 75 | 253 | 0.0 | 1.0 | 0.00 | 0.00 | 0.00 | 37 | 1013.6 |
| 20260504233103 | 75 | 256 | 0.0 | 0.0 | 0.00 | 0.00 | 0.00 | 37 | 1013.5 |
| 20260504233002 | 75 | 256 | 0.0 | 2.0 | 0.00 | 0.00 | 0.00 | 37 | 1013.6 |
| 20260504232901 | 75 | 256 | 0.0 | 2.0 | 0.00 | 0.00 | 0.00 | 37 | 1013.6 |
| 20260504232701 | 75 | 256 | 0.0 | 2.0 | 0.00 | 0.00 | 0.00 | 37 | 1013.6 |
| 20260504232602 | 75 | 256 | 0.0 | 2.0 | 0.00 | 0.00 | 0.00 | 36 | 1013.6 |
| 20260504232501 | 75 | 256 | 0.0 | 2.0 | 0.00 | 0.00 | 0.00 | 36 | 1013.6 |
| 20260504232401 | 75 | 255 | 0.0 | 2.0 | 0.00 | 0.00 | 0.00 | 36 | 1013.6 |
| 20260504232202 | 76 | 255 | 0.0 | 2.0 | 0.00 | 0.00 | 0.00 | 35 | 1013.5 |
| 20260504232101 | 76 | 250 | 0.0 | 2.0 | 0.00 | 0.00 | 0.00 | 35 | 1013.5 |
| 20260504232001 | 76 | 278 | 0.0 | 2.0 | 0.00 | 0.00 | 0.00 | 36 | 1013.7 |
| 20260504231901 | 76 | 236 | 0.0 | 2.0 | 0.00 | 0.00 | 0.00 | 35 | 1013.6 |
| 20260504231801 | 76 | 264 | 0.0 | 2.0 | 0.00 | 0.00 | 0.00 | 35 | 1013.6 |
| 20260504231601 | 76 | 252 | 0.0 | 2.0 | 0.00 | 0.00 | 0.00 | 36 | 1013.6 |
| 20260504231502 | 76 | 250 | 0.0 | 2.0 | 0.00 | 0.00 | 0.00 | 36 | 1013.5 |
| 20260504231401 | 76 | 250 | 0.0 | 2.0 | 0.00 | 0.00 | 0.00 | 36 | 1013.6 |
| 20260504231302 | 76 | 250 | 0.0 | 2.0 | 0.00 | 0.00 | 0.00 | 36 | 1013.7 |
| 20260504231201 | 76 | 252 | 0.0 | 2.0 | 0.00 | 0.00 | 0.00 | 35 | 1013.6 |
| 20260504231102 | 76 | 256 | 0.0 | 2.0 | 0.00 | 0.00 | 0.00 | 36 | 1013.7 |
| 20260504231002 | 76 | 260 | 0.0 | 2.0 | 0.00 | 0.00 | 0.00 | 35 | 1013.5 |
| 20260504230901 | 76 | 280 | 0.0 | 2.0 | 0.00 | 0.00 | 0.00 | 35 | 1013.5 |
| 20260504230803 | 76 | 275 | 0.0 | 1.0 | 0.00 | 0.00 | 0.00 | 35 | 1013.5 |
| 20260504230702 | 76 | 260 | 0.0 | 1.0 | 0.00 | 0.00 | 0.00 | 37 | 1013.6 |
| 20260504230601 | 76 | 260 | 0.0 | 1.0 | 0.00 | 0.00 | 0.00 | 36 | 1013.6 |
| 20260504230501 | 77 | 260 | 0.0 | 1.0 | 0.00 | 0.00 | 0.00 | 35 | 1013.7 |
| 20260504230302 | 77 | 143 | 0.0 | 1.0 | 0.00 | 0.00 | 0.00 | 36 | 1013.6 |
| 20260504230201 | 77 | 143 | 0.0 | 1.0 | 0.00 | 0.00 | 0.00 | 36 | 1013.6 |
| 20260504230100 | 77 | 245 | 0.0 | 1.0 | 0.00 | 0.00 | 0.00 | 35 | 1013.6 |
| 20260504230005 | 77 | 244 | 0.0 | 1.0 | 0.00 | 0.00 | 0.00 | 35 | 1013.6 |
| 20260504225904 | 77 | 242 | 0.0 | 1.0 | 0.00 | 0.00 | 0.00 | 34 | 1013.6 |
| 20260504225802 | 77 | 295 | 0.0 | 1.0 | 0.00 | 0.00 | 0.00 | 34 | 1013.6 |
| 20260504225702 | 77 | 267 | 0.0 | 3.0 | 0.00 | 0.00 | 0.00 | 34 | 1013.6 |
| 20260504225603 | 77 | 256 | 0.0 | 3.0 | 0.00 | 0.00 | 0.00 | 35 | 1013.6 |
| 20260504225502 | 77 | 195 | 0.0 | 3.0 | 0.00 | 0.00 | 0.00 | 35 | 1013.7 |
| 20260504225402 | 77 | 177 | 0.0 | 3.0 | 0.00 | 0.00 | 0.00 | 35 | 1013.6 |
| 20260504225102 | 77 | 264 | 0.0 | 3.0 | 0.00 | 0.00 | 0.00 | 35 | 1013.7 |
| 20260504225002 | 78 | 262 | 0.0 | 3.0 | 0.00 | 0.00 | 0.00 | 34 | 1013.6 |
| 20260504224902 | 78 | 252 | 0.0 | 3.0 | 0.00 | 0.00 | 0.00 | 34 | 1013.6 |
| 20260504224802 | 78 | 266 | 0.0 | 1.0 | 0.00 | 0.00 | 0.00 | 34 | 1013.6 |
| 20260504224703 | 78 | 267 | 0.0 | 1.0 | 0.00 | 0.00 | 0.00 | 34 | 1013.6 |
| 20260504224602 | 78 | 257 | 0.0 | 1.0 | 0.00 | 0.00 | 0.00 | 34 | 1013.6 |
| 20260504224502 | 78 | 231 | 0.0 | 2.0 | 0.00 | 0.00 | 0.00 | 34 | 1013.5 |
| 20260504224402 | 78 | 250 | 0.0 | 2.0 | 0.00 | 0.00 | 0.00 | 33 | 1013.6 |
| 20260504224303 | 78 | 252 | 0.0 | 3.0 | 0.00 | 0.00 | 0.00 | 33 | 1013.5 |
| 20260504224203 | 78 | 252 | 0.0 | 3.0 | 0.00 | 0.00 | 0.00 | 33 | 1013.5 |
| 20260504224002 | 78 | 253 | 0.0 | 3.0 | 0.00 | 0.00 | 0.00 | 32 | 1013.5 |
| 20260504223902 | 78 | 252 | 0.0 | 3.0 | 0.00 | 0.00 | 0.00 | 32 | 1013.5 |
| 20260504223802 | 79 | 245 | 0.0 | 3.0 | 0.00 | 0.00 | 0.00 | 32 | 1013.5 |
| 20260504223702 | 79 | 245 | 0.0 | 3.0 | 0.00 | 0.00 | 0.00 | 32 | 1013.5 |
| 20260504223503 | 79 | 273 | 0.0 | 3.0 | 0.00 | 0.00 | 0.00 | 33 | 1013.5 |
| 20260504223403 | 79 | 148 | 0.0 | 3.0 | 0.00 | 0.00 | 0.00 | 33 | 1013.5 |
| 20260504223202 | 79 | 283 | 0.0 | 3.0 | 0.00 | 0.00 | 0.00 | 32 | 1013.6 |
| 20260504223002 | 80 | 248 | 0.0 | 3.0 | 0.00 | 0.00 | 0.00 | 32 | 1013.5 |
| 20260504222903 | 80 | 252 | 1.0 | 3.0 | 0.00 | 0.00 | 0.00 | 32 | 1013.6 |
| 20260504222802 | 80 | 158 | 1.0 | 4.0 | 0.00 | 0.00 | 0.00 | 32 | 1013.6 |
| 20260504222603 | 80 | 253 | 1.0 | 4.0 | 0.00 | 0.00 | 0.00 | 31 | 1013.5 |
| 20260504222503 | 80 | 246 | 1.0 | 4.0 | 0.00 | 0.00 | 0.00 | 31 | 1013.5 |
| 20260504222402 | 80 | 259 | 1.0 | 4.0 | 0.00 | 0.00 | 0.00 | 32 | 1013.5 |
| 20260504222302 | 80 | 252 | 1.0 | 4.0 | 0.00 | 0.00 | 0.00 | 32 | 1013.5 |
| 20260504222203 | 80 | 233 | 1.0 | 4.0 | 0.00 | 0.00 | 0.00 | 32 | 1013.6 |
| 20260504222101 | 80 | 242 | 1.0 | 4.0 | 0.00 | 0.00 | 0.00 | 31 | 1013.6 |
| 20260504222002 | 81 | 277 | 1.0 | 4.0 | 0.00 | 0.00 | 0.00 | 31 | 1013.6 |
| 20260504221902 | 81 | 248 | 1.0 | 3.0 | 0.00 | 0.00 | 0.00 | 31 | 1013.6 |
| 20260504221801 | 81 | 249 | 0.0 | 3.0 | 0.00 | 0.00 | 0.00 | 31 | 1013.6 |
| 20260504221702 | 81 | 255 | 0.0 | 3.0 | 0.00 | 0.00 | 0.00 | 31 | 1013.5 |
| 20260504221602 | 81 | 249 | 0.0 | 2.0 | 0.00 | 0.00 | 0.00 | 32 | 1013.5 |
| 20260504221502 | 81 | 144 | 1.0 | 2.0 | 0.00 | 0.00 | 0.00 | 32 | 1013.5 |
| 20260504221402 | 81 | 181 | 1.0 | 2.0 | 0.00 | 0.00 | 0.00 | 32 | 1013.5 |
| 20260504221302 | 81 | 262 | 1.0 | 4.0 | 0.00 | 0.00 | 0.00 | 33 | 1013.5 |
| 20260504221202 | 80 | 236 | 1.0 | 4.0 | 0.00 | 0.00 | 0.00 | 32 | 1013.5 |
| 20260504221003 | 80 | 242 | 1.0 | 4.0 | 0.00 | 0.00 | 0.00 | 31 | 1013.5 |
| 20260504220801 | 81 | 248 | 1.0 | 4.0 | 0.00 | 0.00 | 0.00 | 31 | 1013.5 |
| 20260504220703 | 81 | 174 | 1.0 | 4.0 | 0.00 | 0.00 | 0.00 | 31 | 1013.6 |
| 20260504220601 | 81 | 277 | 1.0 | 4.0 | 0.00 | 0.00 | 0.00 | 30 | 1013.5 |
| 20260504220502 | 81 | 256 | 1.0 | 3.0 | 0.00 | 0.00 | 0.00 | 31 | 1013.5 |
| 20260504220402 | 81 | 214 | 1.0 | 3.0 | 0.00 | 0.00 | 0.00 | 31 | 1013.5 |
| 20260504220302 | 81 | 234 | 1.0 | 3.0 | 0.00 | 0.00 | 0.00 | 31 | 1013.5 |
| 20260504220202 | 81 | 246 | 1.0 | 3.0 | 0.00 | 0.00 | 0.00 | 33 | 1013.6 |
| 20260504220005 | 80 | 229 | 0.0 | 4.0 | 0.00 | 0.00 | 0.00 | 31 | 1013.4 |
| 20260504215903 | 80 | 262 | 1.0 | 4.0 | 0.00 | 0.00 | 0.00 | 31 | 1013.5 |
| 20260504215802 | 80 | 239 | 1.0 | 4.0 | 0.00 | 0.00 | 0.00 | 30 | 1013.6 |
| 20260504215702 | 80 | 274 | 1.0 | 4.0 | 0.00 | 0.00 | 0.00 | 31 | 1013.5 |
| 20260504215603 | 80 | 250 | 1.0 | 5.0 | 0.00 | 0.00 | 0.00 | 31 | 1013.5 |
| 20260504215504 | 80 | 248 | 1.0 | 5.0 | 0.00 | 0.00 | 0.00 | 32 | 1013.5 |
| 20260504215403 | 80 | 252 | 2.0 | 5.0 | 0.00 | 0.00 | 0.00 | 31 | 1013.6 |
| 20260504215202 | 80 | 238 | 2.0 | 5.0 | 0.00 | 0.00 | 0.00 | 32 | 1013.6 |
| 20260504215102 | 80 | 270 | 2.0 | 5.0 | 0.00 | 0.00 | 0.00 | 31 | 1013.4 |
| 20260504214603 | 80 | 263 | 2.0 | 6.0 | 0.00 | 0.00 | 0.00 | 31 | 1013.6 |
| 20260504214504 | 80 | 240 | 1.0 | 6.0 | 0.00 | 0.00 | 0.00 | 31 | 1013.4 |
| 20260504214303 | 80 | 264 | 2.0 | 6.0 | 0.00 | 0.00 | 0.00 | 31 | 1013.5 |
| 20260504214202 | 80 | 240 | 2.0 | 6.0 | 0.00 | 0.00 | 0.00 | 31 | 1013.6 |
| 20260504214102 | 80 | 239 | 2.0 | 6.0 | 0.00 | 0.00 | 0.00 | 31 | 1013.6 |
| 20260504214002 | 80 | 243 | 2.0 | 6.0 | 0.00 | 0.00 | 0.00 | 31 | 1013.6 |
| 20260504213902 | 80 | 274 | 2.0 | 8.0 | 0.00 | 0.00 | 0.00 | 30 | 1013.5 |
| 20260504213802 | 81 | 236 | 2.0 | 8.0 | 0.00 | 0.00 | 0.00 | 30 | 1013.5 |
| 20260504213702 | 81 | 280 | 2.0 | 8.0 | 0.00 | 0.00 | 0.00 | 31 | 1013.5 |
| 20260504213602 | 81 | 248 | 2.0 | 8.0 | 0.00 | 0.00 | 0.00 | 30 | 1013.5 |
| 20260504213502 | 81 | 259 | 2.0 | 8.0 | 0.00 | 0.00 | 0.00 | 30 | 1013.5 |
| 20260504213403 | 81 | 269 | 1.0 | 8.0 | 0.00 | 0.00 | 0.00 | 30 | 1013.6 |
| 20260504213302 | 81 | 252 | 2.0 | 8.0 | 0.00 | 0.00 | 0.00 | 30 | 1013.6 |
| 20260504213103 | 81 | 244 | 1.0 | 5.0 | 0.00 | 0.00 | 0.00 | 31 | 1013.5 |
| 20260504213006 | 81 | 252 | 1.0 | 5.0 | 0.00 | 0.00 | 0.00 | 31 | 1013.5 |
| 20260504213003 | 81 | 252 | 1.0 | 5.0 | 0.00 | 0.00 | 0.00 | 31 | 1013.5 |
| 20260504212904 | 81 | 158 | 1.0 | 5.0 | 0.00 | 0.00 | 0.00 | 31 | 1013.6 |
| 20260504212702 | 81 | 245 | 1.0 | 4.0 | 0.00 | 0.00 | 0.00 | 30 | 1013.5 |
| 20260504212502 | 81 | 277 | 0.0 | 3.0 | 0.00 | 0.00 | 0.00 | 31 | 1013.6 |
| 20260504212402 | 81 | 253 | 0.0 | 3.0 | 0.00 | 0.00 | 0.00 | 31 | 1013.6 |
| 20260504212304 | 81 | 236 | 0.0 | 3.0 | 0.00 | 0.00 | 0.00 | 31 | 1013.6 |
| 20260504212103 | 81 | 344 | 0.0 | 3.0 | 0.00 | 0.00 | 0.00 | 33 | 1013.5 |
| 20260504212002 | 80 | 259 | 1.0 | 3.0 | 0.00 | 0.00 | 0.00 | 33 | 1013.6 |
| 20260504211903 | 80 | 245 | 1.0 | 3.0 | 0.00 | 0.00 | 0.00 | 32 | 1013.6 |
| 20260504211802 | 80 | 249 | 1.0 | 6.0 | 0.00 | 0.00 | 0.00 | 32 | 1013.6 |
| 20260504211703 | 80 | 248 | 1.0 | 6.0 | 0.00 | 0.00 | 0.00 | 32 | 1013.6 |
| 20260504211603 | 80 | 250 | 1.0 | 6.0 | 0.00 | 0.00 | 0.00 | 32 | 1013.6 |
| 20260504211501 | 79 | 267 | 1.0 | 6.0 | 0.00 | 0.00 | 0.00 | 32 | 1013.5 |
| 20260504211402 | 79 | 253 | 2.0 | 6.0 | 0.00 | 0.00 | 0.00 | 32 | 1013.6 |
| 20260504211303 | 79 | 242 | 2.0 | 6.0 | 0.00 | 0.00 | 0.00 | 32 | 1013.6 |
| 20260504211203 | 79 | 263 | 2.0 | 6.0 | 0.00 | 0.00 | 0.00 | 32 | 1013.6 |
| 20260504211102 | 79 | 242 | 2.0 | 6.0 | 0.00 | 0.00 | 0.00 | 32 | 1013.7 |
| 20260504211003 | 79 | 219 | 2.0 | 6.0 | 0.00 | 0.00 | 0.00 | 33 | 1013.6 |
| 20260504210904 | 79 | 238 | 2.0 | 4.0 | 0.00 | 0.00 | 0.00 | 32 | 1013.6 |
| 20260504210803 | 79 | 232 | 2.0 | 4.0 | 0.00 | 0.00 | 0.00 | 32 | 1013.6 |
| 20260504210703 | 79 | 248 | 2.0 | 4.0 | 0.00 | 0.00 | 0.00 | 33 | 1013.5 |
| 20260504210603 | 79 | 236 | 2.0 | 8.0 | 0.00 | 0.00 | 0.00 | 33 | 1013.6 |
| 20260504210502 | 79 | 232 | 2.0 | 8.0 | 0.00 | 0.00 | 0.00 | 32 | 1013.6 |
| 20260504210303 | 79 | 315 | 2.0 | 8.0 | 0.00 | 0.00 | 0.00 | 33 | 1013.6 |
| 20260504210204 | 79 | 220 | 2.0 | 8.0 | 0.00 | 0.00 | 0.00 | 33 | 1013.7 |
| 20260504210005 | 79 | 250 | 3.0 | 8.0 | 0.00 | 0.00 | 0.00 | 33 | 1013.5 |
| 20260504205903 | 79 | 249 | 2.0 | 8.0 | 0.00 | 0.00 | 0.00 | 33 | 1013.6 |
| 20260504205803 | 79 | 243 | 2.0 | 8.0 | 0.00 | 0.00 | 0.00 | 33 | 1013.5 |
| 20260504205602 | 78 | 308 | 1.0 | 4.0 | 0.00 | 0.00 | 0.00 | 33 | 1013.5 |
| 20260504205502 | 78 | 277 | 1.0 | 4.0 | 0.00 | 0.00 | 0.00 | 33 | 1013.6 |
| 20260504205403 | 78 | 263 | 1.0 | 4.0 | 0.00 | 0.00 | 0.00 | 33 | 1013.6 |
| 20260504205201 | 78 | 225 | 1.0 | 4.0 | 0.00 | 0.00 | 0.00 | 33 | 1013.7 |
| 20260504205102 | 78 | 231 | 1.0 | 4.0 | 0.00 | 0.00 | 0.00 | 33 | 1013.6 |
| 20260504205003 | 78 | 249 | 1.0 | 4.0 | 0.00 | 0.00 | 0.00 | 34 | 1013.7 |
| 20260504204902 | 78 | 243 | 2.0 | 4.0 | 0.00 | 0.00 | 0.00 | 33 | 1013.7 |
| 20260504204803 | 78 | 313 | 2.0 | 4.0 | 0.00 | 0.00 | 0.00 | 33 | 1013.7 |
| 20260504204703 | 78 | 275 | 2.0 | 5.0 | 0.00 | 0.00 | 0.00 | 33 | 1013.7 |
| 20260504204501 | 78 | 251 | 3.0 | 10.0 | 0.00 | 0.00 | 0.00 | 33 | 1013.6 |
| 20260504204401 | 78 | 276 | 3.0 | 10.0 | 0.00 | 0.00 | 0.00 | 33 | 1013.7 |
| 20260504204302 | 78 | 321 | 3.0 | 10.0 | 0.00 | 0.00 | 0.00 | 33 | 1013.7 |
| 20260504204102 | 78 | 253 | 3.0 | 10.0 | 0.00 | 0.00 | 0.00 | 34 | 1013.7 |
| 20260504204004 | 78 | 246 | 3.0 | 10.0 | 0.00 | 0.00 | 0.00 | 33 | 1013.7 |
| 20260504203902 | 78 | 253 | 2.0 | 10.0 | 0.00 | 0.00 | 0.00 | 33 | 1013.7 |
| 20260504203802 | 78 | 252 | 1.0 | 11.0 | 0.00 | 0.00 | 0.00 | 33 | 1013.8 |
| 20260504203702 | 78 | 225 | 1.0 | 8.0 | 0.00 | 0.00 | 0.00 | 33 | 1013.8 |
| 20260504203602 | 78 | 239 | 1.0 | 6.0 | 0.00 | 0.00 | 0.00 | 33 | 1013.6 |
| 20260504203503 | 78 | 283 | 1.0 | 4.0 | 0.00 | 0.00 | 0.00 | 33 | 1013.6 |
| 20260504203402 | 78 | 225 | 1.0 | 4.0 | 0.00 | 0.00 | 0.00 | 33 | 1013.7 |
| 20260504203002 | 78 | 140 | 0.0 | 4.0 | 0.00 | 0.00 | 0.00 | 33 | 1013.7 |
| 20260504202902 | 78 | 152 | 1.0 | 4.0 | 0.00 | 0.00 | 0.00 | 33 | 1013.8 |
| 20260504202804 | 78 | 153 | 1.0 | 4.0 | 0.00 | 0.00 | 0.00 | 32 | 1013.8 |
| 20260504202703 | 78 | 243 | 1.0 | 4.0 | 0.00 | 0.00 | 0.00 | 33 | 1013.8 |
| 20260504202602 | 78 | 248 | 2.0 | 4.0 | 0.00 | 0.00 | 0.00 | 33 | 1013.7 |
| 20260504202502 | 78 | 263 | 2.0 | 6.0 | 0.00 | 0.00 | 0.00 | 33 | 1013.8 |
| 20260504202402 | 78 | 238 | 2.0 | 6.0 | 0.00 | 0.00 | 0.00 | 33 | 1013.8 |
| 20260504202301 | 78 | 109 | 2.0 | 6.0 | 0.00 | 0.00 | 0.00 | 33 | 1013.9 |
| 20260504202201 | 78 | 129 | 2.0 | 7.0 | 0.00 | 0.00 | 0.00 | 33 | 1013.8 |
| 20260504202003 | 78 | 264 | 2.0 | 7.0 | 0.00 | 0.00 | 0.00 | 34 | 1013.9 |
| 20260504201801 | 77 | 257 | 2.0 | 7.0 | 0.00 | 0.00 | 0.00 | 32 | 1013.8 |
| 20260504201702 | 77 | 279 | 2.0 | 7.0 | 0.00 | 0.00 | 0.00 | 33 | 1013.8 |
| 20260504201603 | 77 | 228 | 2.0 | 7.0 | 0.00 | 0.00 | 0.00 | 32 | 1013.8 |
| 20260504201502 | 77 | 245 | 3.0 | 7.0 | 0.00 | 0.00 | 0.00 | 32 | 1013.7 |
| 20260504201401 | 78 | 240 | 2.0 | 7.0 | 0.00 | 0.00 | 0.00 | 31 | 1013.8 |
| 20260504201302 | 78 | 240 | 2.0 | 8.0 | 0.00 | 0.00 | 0.00 | 32 | 1013.8 |
| 20260504201203 | 78 | 263 | 2.0 | 4.0 | 0.00 | 0.00 | 0.00 | 32 | 1013.9 |
| 20260504201103 | 78 | 313 | 2.0 | 7.0 | 0.00 | 0.00 | 0.00 | 31 | 1013.9 |
| 20260504201002 | 78 | 255 | 2.0 | 9.0 | 0.00 | 0.00 | 0.00 | 32 | 1014.0 |
| 20260504200903 | 78 | 295 | 2.0 | 9.0 | 0.00 | 0.00 | 0.00 | 32 | 1013.9 |
| 20260504200802 | 78 | 275 | 2.0 | 9.0 | 0.00 | 0.00 | 0.00 | 32 | 1014.0 |
| 20260504200702 | 78 | 260 | 2.0 | 9.0 | 0.00 | 0.00 | 0.00 | 32 | 1013.9 |
| 20260504200602 | 78 | 270 | 2.0 | 9.0 | 0.00 | 0.00 | 0.00 | 32 | 1014.0 |
| 20260504200502 | 78 | 273 | 2.0 | 9.0 | 0.00 | 0.00 | 0.00 | 32 | 1013.9 |
| 20260504200402 | 78 | 312 | 2.0 | 9.0 | 0.00 | 0.00 | 0.00 | 32 | 1014.1 |
| 20260504200302 | 78 | 236 | 2.0 | 9.0 | 0.00 | 0.00 | 0.00 | 32 | 1014.1 |
| 20260504200202 | 78 | 239 | 1.0 | 10.0 | 0.00 | 0.00 | 0.00 | 32 | 1014.0 |
| 20260504200103 | 77 | 243 | 1.0 | 6.0 | 0.00 | 0.00 | 0.00 | 31 | 1014.0 |
| 20260504200008 | 77 | 239 | 1.0 | 6.0 | 0.00 | 0.00 | 0.00 | 32 | 1013.9 |
| 20260504200004 | 77 | 239 | 2.0 | 6.0 | 0.00 | 0.00 | 0.00 | 32 | 1013.9 |
| 20260504195901 | 77 | 149 | 2.0 | 7.0 | 0.00 | 0.00 | 0.00 | 31 | 1014.0 |
| 20260504195802 | 77 | 246 | 2.0 | 7.0 | 0.00 | 0.00 | 0.00 | 32 | 1014.0 |
| 20260504195602 | 77 | 260 | 3.0 | 9.0 | 0.00 | 0.00 | 0.00 | 32 | 1013.9 |
| 20260504195501 | 77 | 144 | 3.0 | 9.0 | 0.00 | 0.00 | 0.00 | 31 | 1014.0 |
| 20260504195402 | 77 | 240 | 3.0 | 9.0 | 0.00 | 0.00 | 0.00 | 31 | 1013.9 |
| 20260504195304 | 77 | 250 | 3.0 | 9.0 | 0.00 | 0.00 | 0.00 | 32 | 1014.0 |
| 20260504195202 | 77 | 252 | 3.0 | 9.0 | 0.00 | 0.00 | 0.00 | 32 | 1014.1 |
| 20260504195102 | 77 | 243 | 2.0 | 9.0 | 0.00 | 0.00 | 0.00 | 31 | 1014.0 |
| 20260504195000 | 77 | 245 | 2.0 | 9.0 | 0.00 | 0.00 | 0.00 | 31 | 1014.1 |
| 20260504194903 | 78 | 278 | 2.0 | 9.0 | 0.00 | 0.00 | 0.00 | 31 | 1014.1 |
| 20260504194701 | 78 | 243 | 1.0 | 8.0 | 0.00 | 0.00 | 0.00 | 32 | 1014.2 |
| 20260504194601 | 78 | 222 | 1.0 | 4.0 | 0.00 | 0.00 | 0.00 | 32 | 1014.2 |
| 20260504194504 | 78 | 229 | 1.0 | 5.0 | 0.00 | 0.00 | 0.00 | 32 | 1014.2 |
| 20260504194501 | 78 | 229 | 1.0 | 5.0 | 0.00 | 0.00 | 0.00 | 32 | 1014.2 |
| 20260504194401 | 78 | 321 | 1.0 | 3.0 | 0.00 | 0.00 | 0.00 | 31 | 1014.2 |
| 20260504194302 | 78 | 304 | 1.0 | 3.0 | 0.00 | 0.00 | 0.00 | 32 | 1014.3 |
| 20260504194201 | 78 | 226 | 1.0 | 3.0 | 0.00 | 0.00 | 0.00 | 32 | 1014.3 |
| 20260504194102 | 78 | 321 | 1.0 | 3.0 | 0.00 | 0.00 | 0.00 | 33 | 1014.3 |
| 20260504194000 | 78 | 319 | 1.0 | 3.0 | 0.00 | 0.00 | 0.00 | 32 | 1014.3 |
| 20260504193901 | 77 | 304 | 1.0 | 3.0 | 0.00 | 0.00 | 0.00 | 31 | 1014.3 |
| 20260504193803 | 78 | 312 | 2.0 | 3.0 | 0.00 | 0.00 | 0.00 | 31 | 1014.3 |
| 20260504193701 | 78 | 256 | 1.0 | 3.0 | 0.00 | 0.00 | 0.00 | 31 | 1014.3 |
| 20260504193401 | 78 | 276 | 1.0 | 4.0 | 0.00 | 0.00 | 0.00 | 31 | 1014.4 |
| 20260504193301 | 78 | 276 | 1.0 | 4.0 | 0.00 | 0.00 | 0.00 | 32 | 1014.4 |
| 20260504193201 | 78 | 302 | 1.0 | 4.0 | 0.00 | 0.00 | 0.00 | 32 | 1014.4 |
| 20260504193101 | 78 | 267 | 1.0 | 4.0 | 0.00 | 0.00 | 0.00 | 32 | 1014.4 |
| 20260504193002 | 78 | 240 | 1.0 | 4.0 | 0.00 | 0.00 | 0.00 | 32 | 1014.4 |
| 20260504192901 | 78 | 266 | 1.0 | 4.0 | 0.00 | 0.00 | 0.00 | 31 | 1014.5 |
| 20260504192801 | 78 | 278 | 1.0 | 4.0 | 0.00 | 0.00 | 0.00 | 31 | 1014.5 |
| 20260504192700 | 78 | 245 | 1.0 | 4.0 | 0.00 | 0.00 | 0.00 | 31 | 1014.5 |
| 20260504192602 | 78 | 248 | 1.0 | 4.0 | 0.00 | 0.00 | 0.00 | 31 | 1014.4 |
| 20260504192500 | 78 | 281 | 1.0 | 4.0 | 0.00 | 0.00 | 0.00 | 30 | 1014.5 |
| 20260504192401 | 78 | 252 | 1.0 | 4.0 | 0.00 | 0.00 | 0.00 | 31 | 1014.5 |
| 20260504192304 | 78 | 358 | 1.0 | 4.0 | 0.00 | 0.00 | 0.00 | 31 | 1014.3 |
| 20260504192200 | 78 | 345 | 1.0 | 4.0 | 0.00 | 0.00 | 0.00 | 32 | 1014.5 |
| 20260504192102 | 78 | 240 | 1.0 | 4.0 | 0.00 | 0.00 | 0.00 | 31 | 1014.5 |
| 20260504192001 | 78 | 269 | 1.0 | 4.0 | 0.00 | 0.00 | 0.00 | 31 | 1014.5 |
| 20260504191902 | 78 | 240 | 1.0 | 3.0 | 0.00 | 0.00 | 0.00 | 31 | 1014.6 |
| 20260504191801 | 78 | 142 | 1.0 | 5.0 | 0.00 | 0.00 | 0.00 | 31 | 1014.6 |
| 20260504191701 | 77 | 245 | 1.0 | 5.0 | 0.00 | 0.00 | 0.00 | 31 | 1014.6 |
| 20260504191603 | 77 | 274 | 1.0 | 8.0 | 0.00 | 0.00 | 0.00 | 32 | 1014.7 |
| 20260504191501 | 77 | 304 | 1.0 | 8.0 | 0.00 | 0.00 | 0.00 | 32 | 1014.7 |
| 20260504191401 | 77 | 253 | 2.0 | 8.0 | 0.00 | 0.00 | 0.00 | 32 | 1014.7 |
| 20260504191201 | 77 | 269 | 2.0 | 8.0 | 0.00 | 0.00 | 0.00 | 31 | 1014.8 |
| 20260504191102 | 77 | 160 | 2.0 | 8.0 | 0.00 | 0.00 | 0.00 | 32 | 1014.7 |
| 20260504191001 | 77 | 242 | 2.0 | 8.0 | 0.00 | 0.00 | 0.00 | 31 | 1014.7 |
| 20260504190901 | 77 | 228 | 1.0 | 8.0 | 0.00 | 0.00 | 0.00 | 32 | 1014.7 |
| 20260504190801 | 77 | 232 | 1.0 | 8.0 | 0.00 | 0.00 | 0.00 | 31 | 1014.7 |
| 20260504190701 | 77 | 267 | 1.0 | 6.0 | 0.00 | 0.00 | 0.00 | 32 | 1014.7 |
| 20260504190601 | 77 | 270 | 2.0 | 6.0 | 0.00 | 0.00 | 0.00 | 32 | 1014.8 |
| 20260504190501 | 77 | 214 | 2.0 | 7.0 | 0.00 | 0.00 | 0.00 | 31 | 1014.7 |
| 20260504190302 | 77 | 169 | 2.0 | 10.0 | 0.00 | 0.00 | 0.00 | 32 | 1014.8 |
| 20260504190201 | 77 | 138 | 2.0 | 10.0 | 0.00 | 0.00 | 0.00 | 32 | 1014.6 |
| 20260504190008 | 77 | 169 | 0.0 | 10.0 | 0.00 | 0.00 | 0.00 | 33 | 1014.6 |
| 20260504185901 | 77 | 291 | 2.0 | 10.0 | 0.00 | 0.00 | 0.00 | 32 | 1014.7 |
| 20260504185801 | 77 | 277 | 2.0 | 10.0 | 0.00 | 0.00 | 0.00 | 31 | 1014.7 |
| 20260504185500 | 77 | 259 | 2.0 | 8.0 | 0.00 | 0.00 | 0.00 | 32 | 1014.7 |
| 20260504185402 | 77 | 308 | 1.0 | 8.0 | 0.00 | 0.00 | 0.00 | 32 | 1014.8 |
| 20260504185200 | 77 | 249 | 1.0 | 8.0 | 0.00 | 0.00 | 0.00 | 31 | 1014.8 |
| 20260504184901 | 77 | 318 | 1.0 | 4.0 | 0.00 | 0.00 | 0.00 | 31 | 1014.6 |
| 20260504184802 | 77 | 276 | 1.0 | 4.0 | 0.00 | 0.00 | 0.00 | 31 | 1014.7 |
| 20260504184702 | 77 | 323 | 1.0 | 4.0 | 0.00 | 0.00 | 0.00 | 31 | 1014.7 |
| 20260504184502 | 77 | 268 | 0.0 | 6.0 | 0.00 | 0.00 | 0.00 | 31 | 1014.7 |
| 20260504184401 | 77 | 150 | 1.0 | 6.0 | 0.00 | 0.00 | 0.00 | 31 | 1014.7 |
| 20260504184201 | 77 | 84 | 1.0 | 6.0 | 0.00 | 0.00 | 0.00 | 31 | 1014.8 |
| 20260504184101 | 77 | 240 | 1.0 | 6.0 | 0.00 | 0.00 | 0.00 | 31 | 1014.7 |
| 20260504184001 | 77 | 260 | 1.0 | 6.0 | 0.00 | 0.00 | 0.00 | 32 | 1014.7 |
| 20260504183901 | 77 | 131 | 1.0 | 6.0 | 0.00 | 0.00 | 0.00 | 32 | 1014.8 |
| 20260504183801 | 77 | 260 | 1.0 | 6.0 | 0.00 | 0.00 | 0.00 | 31 | 1014.7 |
| 20260504183602 | 77 | 240 | 1.0 | 5.0 | 0.00 | 0.00 | 0.00 | 32 | 1014.7 |
| 20260504183502 | 77 | 238 | 1.0 | 4.0 | 0.00 | 0.00 | 0.00 | 33 | 1014.6 |
| 20260504183402 | 77 | 124 | 1.0 | 4.0 | 0.00 | 0.00 | 0.00 | 32 | 1014.6 |
| 20260504183302 | 77 | 225 | 1.0 | 4.0 | 0.00 | 0.00 | 0.00 | 33 | 1014.7 |
| 20260504183201 | 77 | 240 | 1.0 | 4.0 | 0.00 | 0.00 | 0.00 | 33 | 1014.8 |
| 20260504183101 | 77 | 240 | 2.0 | 4.0 | 0.00 | 0.00 | 0.00 | 31 | 1014.8 |
| 20260504183001 | 77 | 328 | 2.0 | 5.0 | 0.00 | 0.00 | 0.00 | 31 | 1014.8 |
| 20260504182901 | 77 | 323 | 2.0 | 6.0 | 0.00 | 0.00 | 0.00 | 31 | 1014.8 |
| 20260504182701 | 77 | 249 | 2.0 | 8.0 | 0.00 | 0.00 | 0.00 | 31 | 1014.9 |
| 20260504182601 | 77 | 244 | 2.0 | 8.0 | 0.00 | 0.00 | 0.00 | 32 | 1015.0 |
| 20260504182502 | 77 | 233 | 2.0 | 8.0 | 0.00 | 0.00 | 0.00 | 31 | 1015.0 |
| 20260504182301 | 77 | 248 | 2.0 | 8.0 | 0.00 | 0.00 | 0.00 | 32 | 1015.1 |
| 20260504182201 | 77 | 273 | 2.0 | 8.0 | 0.00 | 0.00 | 0.00 | 30 | 1015.1 |
| 20260504182101 | 77 | 229 | 2.0 | 8.0 | 0.00 | 0.00 | 0.00 | 31 | 1015.1 |
| 20260504182001 | 77 | 255 | 2.0 | 8.0 | 0.00 | 0.00 | 0.00 | 32 | 1015.1 |
| 20260504181902 | 77 | 309 | 2.0 | 6.0 | 0.00 | 0.00 | 0.00 | 31 | 1015.1 |
| 20260504181702 | 77 | 225 | 2.0 | 6.0 | 0.00 | 0.00 | 0.00 | 32 | 1015.1 |
| 20260504181501 | 77 | 89 | 1.0 | 6.0 | 0.00 | 0.00 | 0.00 | 32 | 1015.1 |
| 20260504181301 | 77 | 325 | 3.0 | 8.0 | 0.00 | 0.00 | 0.00 | 31 | 1015.3 |
| 20260504181202 | 77 | 250 | 2.0 | 8.0 | 0.00 | 0.00 | 0.00 | 32 | 1015.2 |
| 20260504181001 | 77 | 256 | 3.0 | 8.0 | 0.00 | 0.00 | 0.00 | 32 | 1015.2 |
| 20260504180900 | 77 | 252 | 3.0 | 8.0 | 0.00 | 0.00 | 0.00 | 31 | 1015.2 |
| 20260504180802 | 77 | 238 | 2.0 | 8.0 | 0.00 | 0.00 | 0.00 | 32 | 1015.3 |
| 20260504180700 | 77 | 252 | 2.0 | 8.0 | 0.00 | 0.00 | 0.00 | 33 | 1015.2 |
| 20260504180602 | 77 | 235 | 2.0 | 8.0 | 0.00 | 0.00 | 0.00 | 31 | 1015.1 |
| 20260504180501 | 77 | 240 | 2.0 | 8.0 | 0.00 | 0.00 | 0.00 | 31 | 1015.2 |
| 20260504180201 | 78 | 267 | 2.0 | 6.0 | 0.00 | 0.00 | 0.00 | 32 | 1015.0 |
| 20260504180101 | 77 | 284 | 1.0 | 6.0 | 0.00 | 0.00 | 0.00 | 33 | 1015.0 |
| 20260504180003 | 77 | 269 | 2.0 | 6.0 | 0.00 | 0.00 | 0.00 | 32 | 1015.2 |
| 20260504175900 | 77 | 122 | 1.0 | 6.0 | 0.00 | 0.00 | 0.00 | 32 | 1015.0 |
| 20260504175802 | 77 | 263 | 1.0 | 6.0 | 0.00 | 0.00 | 0.00 | 33 | 1015.0 |
| 20260504175702 | 77 | 257 | 1.0 | 6.0 | 0.00 | 0.00 | 0.00 | 32 | 1015.0 |
| 20260504175601 | 78 | 218 | 1.0 | 6.0 | 0.00 | 0.00 | 0.00 | 31 | 1015.0 |
| 20260504175502 | 77 | 262 | 1.0 | 4.0 | 0.00 | 0.00 | 0.00 | 31 | 1015.2 |
| 20260504175403 | 77 | 356 | 1.0 | 5.0 | 0.00 | 0.00 | 0.00 | 32 | 1015.2 |
| 20260504175301 | 77 | 248 | 1.0 | 5.0 | 0.00 | 0.00 | 0.00 | 33 | 1015.1 |
| 20260504175201 | 77 | 188 | 1.0 | 5.0 | 0.00 | 0.00 | 0.00 | 32 | 1015.2 |
| 20260504175102 | 77 | 79 | 1.0 | 5.0 | 0.00 | 0.00 | 0.00 | 32 | 1015.2 |
| 20260504175000 | 77 | 121 | 1.0 | 5.0 | 0.00 | 0.00 | 0.00 | 32 | 1015.3 |
| 20260504174902 | 77 | 218 | 1.0 | 5.0 | 0.00 | 0.00 | 0.00 | 31 | 1015.3 |
| 20260504174801 | 77 | 248 | 1.0 | 5.0 | 0.00 | 0.00 | 0.00 | 31 | 1015.3 |
| 20260504174701 | 77 | 240 | 1.0 | 5.0 | 0.00 | 0.00 | 0.00 | 32 | 1015.3 |
| 20260504174601 | 77 | 159 | 1.0 | 5.0 | 0.00 | 0.00 | 0.00 | 32 | 1015.3 |
| 20260504174503 | 77 | 250 | 1.0 | 5.0 | 0.00 | 0.00 | 0.00 | 33 | 1015.4 |
| 20260504174402 | 77 | 85 | 1.0 | 4.0 | 0.00 | 0.00 | 0.00 | 32 | 1015.3 |
| 20260504174301 | 77 | 85 | 1.0 | 4.0 | 0.00 | 0.00 | 0.00 | 33 | 1015.3 |
| 20260504174202 | 76 | 113 | 1.0 | 4.0 | 0.00 | 0.00 | 0.00 | 33 | 1015.3 |
| 20260504174001 | 76 | 250 | 1.0 | 6.0 | 0.00 | 0.00 | 0.00 | 32 | 1015.3 |
| 20260504173902 | 76 | 248 | 1.0 | 6.0 | 0.00 | 0.00 | 0.00 | 31 | 1015.4 |
| 20260504173800 | 76 | 242 | 1.0 | 6.0 | 0.00 | 0.00 | 0.00 | 33 | 1015.3 |
| 20260504173601 | 76 | 246 | 2.0 | 8.0 | 0.00 | 0.00 | 0.00 | 34 | 1015.3 |
| 20260504173501 | 76 | 246 | 2.0 | 8.0 | 0.00 | 0.00 | 0.00 | 33 | 1015.3 |
| 20260504173302 | 76 | 290 | 2.0 | 8.0 | 0.00 | 0.00 | 0.00 | 33 | 1015.3 |
| 20260504173201 | 76 | 240 | 2.0 | 8.0 | 0.00 | 0.00 | 0.00 | 33 | 1015.4 |
| 20260504173102 | 76 | 242 | 1.0 | 8.0 | 0.00 | 0.00 | 0.00 | 33 | 1015.4 |
| 20260504173001 | 76 | 138 | 2.0 | 8.0 | 0.00 | 0.00 | 0.00 | 33 | 1015.4 |
| 20260504172901 | 76 | 90 | 2.0 | 8.0 | 0.00 | 0.00 | 0.00 | 33 | 1015.4 |
| 20260504172801 | 76 | 214 | 1.0 | 8.0 | 0.00 | 0.00 | 0.00 | 32 | 1015.4 |
| 20260504172702 | 76 | 232 | 1.0 | 5.0 | 0.00 | 0.00 | 0.00 | 33 | 1015.4 |
| 20260504172601 | 76 | 267 | 1.0 | 5.0 | 0.00 | 0.00 | 0.00 | 32 | 1015.4 |
| 20260504172501 | 76 | 217 | 1.0 | 5.0 | 0.00 | 0.00 | 0.00 | 32 | 1015.5 |
| 20260504172401 | 77 | 281 | 1.0 | 5.0 | 0.00 | 0.00 | 0.00 | 32 | 1015.5 |
| 20260504172303 | 77 | 248 | 1.0 | 5.0 | 0.00 | 0.00 | 0.00 | 32 | 1015.4 |
| 20260504172102 | 76 | 267 | 1.0 | 5.0 | 0.00 | 0.00 | 0.00 | 34 | 1015.5 |
| 20260504171901 | 76 | 97 | 1.0 | 5.0 | 0.00 | 0.00 | 0.00 | 34 | 1015.5 |
| 20260504171800 | 76 | 97 | 1.0 | 5.0 | 0.00 | 0.00 | 0.00 | 35 | 1015.6 |
| 20260504171702 | 76 | 131 | 1.0 | 5.0 | 0.00 | 0.00 | 0.00 | 34 | 1015.6 |
| 20260504171601 | 76 | 270 | 1.0 | 5.0 | 0.00 | 0.00 | 0.00 | 33 | 1015.7 |
| 20260504171503 | 76 | 246 | 1.0 | 5.0 | 0.00 | 0.00 | 0.00 | 32 | 1015.7 |
| 20260504171402 | 76 | 231 | 1.0 | 5.0 | 0.00 | 0.00 | 0.00 | 34 | 1015.7 |
| 20260504171301 | 76 | 260 | 1.0 | 3.0 | 0.00 | 0.00 | 0.00 | 35 | 1015.7 |
| 20260504171201 | 76 | 307 | 1.0 | 3.0 | 0.00 | 0.00 | 0.00 | 34 | 1015.8 |
| 20260504171101 | 76 | 250 | 1.0 | 4.0 | 0.00 | 0.00 | 0.00 | 34 | 1015.8 |
| 20260504171003 | 75 | 256 | 1.0 | 2.0 | 0.00 | 0.00 | 0.00 | 36 | 1015.8 |
| 20260504170801 | 75 | 116 | 2.0 | 7.0 | 0.00 | 0.00 | 0.00 | 37 | 1015.9 |
| 20260504170701 | 75 | 115 | 3.0 | 7.0 | 0.00 | 0.00 | 0.00 | 35 | 1015.9 |
| 20260504170601 | 75 | 115 | 3.0 | 10.0 | 0.00 | 0.00 | 0.00 | 36 | 1015.9 |
| 20260504170501 | 74 | 117 | 3.0 | 10.0 | 0.00 | 0.00 | 0.00 | 35 | 1015.8 |
| 20260504170301 | 74 | 242 | 3.0 | 10.0 | 0.00 | 0.00 | 0.00 | 36 | 1016.1 |
| 20260504160401 | 75 | 242 | 1.0 | 3.0 | 0.00 | 0.00 | 0.00 | 40 | 1016.6 |
| 20260504160303 | 74 | 248 | 1.0 | 4.0 | 0.00 | 0.00 | 0.00 | 40 | 1016.7 |
| 20260504160202 | 74 | 247 | 1.0 | 5.0 | 0.00 | 0.00 | 0.00 | 40 | 1016.7 |
| 20260504151103 | 67 | 243 | 1.0 | 3.0 | 0.00 | 0.00 | 0.00 | 52 | 1016.8 |
| 20260504151002 | 67 | 90 | 1.0 | 3.0 | 0.00 | 0.00 | 0.00 | 52 | 1016.8 |
| 20260504150901 | 67 | 83 | 1.0 | 4.0 | 0.00 | 0.00 | 0.00 | 51 | 1016.9 |
| 20260504150801 | 67 | 176 | 1.0 | 4.0 | 0.00 | 0.00 | 0.00 | 51 | 1016.9 |
| 20260504150702 | 67 | 257 | 1.0 | 4.0 | 0.00 | 0.00 | 0.00 | 52 | 1016.9 |
| 20260504150502 | 67 | 143 | 1.0 | 4.0 | 0.00 | 0.00 | 0.00 | 49 | 1016.9 |
| 20260504150302 | 67 | 148 | 1.0 | 5.0 | 0.00 | 0.00 | 0.00 | 49 | 1016.8 |
| 20260504150201 | 67 | 345 | 1.0 | 5.0 | 0.00 | 0.00 | 0.00 | 49 | 1016.9 |
| 20260504141303 | 62 | 256 | 1.0 | 4.0 | 0.00 | 0.00 | 0.00 | 64 | 1017.0 |
| 20260504141200 | 62 | 272 | 1.0 | 4.0 | 0.00 | 0.00 | 0.00 | 63 | 1017.0 |
| 20260504141102 | 62 | 278 | 0.0 | 4.0 | 0.00 | 0.00 | 0.00 | 63 | 1017.1 |
| 20260504141002 | 62 | 263 | 0.0 | 3.0 | 0.00 | 0.00 | 0.00 | 64 | 1017.1 |
| 20260504140900 | 61 | 238 | 0.0 | 3.0 | 0.00 | 0.00 | 0.00 | 65 | 1017.0 |
| 20260504140601 | 61 | 248 | 0.0 | 4.0 | 0.00 | 0.00 | 0.00 | 66 | 1017.0 |
| 20260504140501 | 61 | 246 | 1.0 | 4.0 | 0.00 | 0.00 | 0.00 | 66 | 1017.0 |
| 20260504140401 | 61 | 245 | 1.0 | 4.0 | 0.00 | 0.00 | 0.00 | 66 | 1017.0 |
| 20260504140301 | 61 | 245 | 1.0 | 4.0 | 0.00 | 0.00 | 0.00 | 64 | 1017.1 |
| 20260504130702 | 56 | 250 | 0.0 | 1.0 | 0.00 | 0.00 | 0.00 | 74 | 1017.0 |
| 20260504130600 | 56 | 250 | 0.0 | 1.0 | 0.00 | 0.00 | 0.00 | 74 | 1017.0 |
| 20260504130501 | 56 | 248 | 0.0 | 1.0 | 0.00 | 0.00 | 0.00 | 74 | 1016.9 |
| 20260504130401 | 56 | 248 | 0.0 | 1.0 | 0.00 | 0.00 | 0.00 | 74 | 1017.0 |
| 20260504130300 | 56 | 248 | 0.0 | 1.0 | 0.00 | 0.00 | 0.00 | 74 | 1016.9 |
| 20260504120301 | 46 | 276 | 0.0 | 0.0 | 0.00 | 0.00 | 0.00 | 88 | 1017.3 |
| 20260504120201 | 46 | 276 | 0.0 | 0.0 | 0.00 | 0.00 | 0.00 | 87 | 1017.3 |
| 20260504110700 | 42 | 276 | 0.0 | 0.0 | 0.00 | 0.00 | 0.00 | 87 | 1017.7 |
| 20260504110601 | 42 | 276 | 0.0 | 0.0 | 0.00 | 0.00 | 0.00 | 87 | 1017.7 |
| 20260504110500 | 42 | 276 | 0.0 | 0.0 | 0.00 | 0.00 | 0.00 | 87 | 1017.7 |
| 20260504110300 | 42 | 274 | 0.0 | 0.0 | 0.00 | 0.00 | 0.00 | 87 | 1017.6 |
| 20260504110201 | 42 | 274 | 0.0 | 0.0 | 0.00 | 0.00 | 0.00 | 87 | 1017.6 |
| 20260504100500 | 42 | 274 | 0.0 | 0.0 | 0.00 | 0.00 | 0.00 | 86 | 1017.1 |
| 20260504100400 | 42 | 274 | 0.0 | 0.0 | 0.00 | 0.00 | 0.00 | 86 | 1017.1 |
| 20260504100200 | 42 | 274 | 0.0 | 0.0 | 0.00 | 0.00 | 0.00 | 86 | 1017.2 |
| 20260504100103 | 42 | 274 | 0.0 | 0.0 | 0.00 | 0.00 | 0.00 | 86 | 1017.3 |
| 20260504082002 | 43 | 274 | 0.0 | 0.0 | 0.00 | 0.00 | 0.00 | 85 | 1017.2 |
| 20260504081900 | 43 | 274 | 0.0 | 0.0 | 0.00 | 0.00 | 0.00 | 85 | 1017.0 |
| 20260504081801 | 43 | 274 | 0.0 | 0.0 | 0.00 | 0.00 | 0.00 | 85 | 1017.2 |
| 20260504081700 | 43 | 274 | 0.0 | 0.0 | 0.00 | 0.00 | 0.00 | 85 | 1017.2 |
| 20260504081601 | 43 | 274 | 0.0 | 0.0 | 0.00 | 0.00 | 0.00 | 85 | 1017.2 |
| 20260504081501 | 43 | 274 | 0.0 | 0.0 | 0.00 | 0.00 | 0.00 | 85 | 1017.3 |
| 20260504081400 | 43 | 275 | 0.0 | 0.0 | 0.00 | 0.00 | 0.00 | 85 | 1017.3 |
| 20260504081259 | 43 | 274 | 0.0 | 0.0 | 0.00 | 0.00 | 0.00 | 85 | 1017.2 |
| 20260504081200 | 43 | 274 | 0.0 | 0.0 | 0.00 | 0.00 | 0.00 | 85 | 1017.3 |
| 20260504081001 | 43 | 274 | 0.0 | 0.0 | 0.00 | 0.00 | 0.00 | 85 | 1017.3 |
| 20260504080901 | 43 | 274 | 0.0 | 0.0 | 0.00 | 0.00 | 0.00 | 85 | 1017.3 |
| 20260504080800 | 43 | 274 | 0.0 | 0.0 | 0.00 | 0.00 | 0.00 | 85 | 1017.3 |
| 20260504080700 | 43 | 274 | 0.0 | 0.0 | 0.00 | 0.00 | 0.00 | 85 | 1017.4 |
| 20260504080602 | 43 | 274 | 0.0 | 0.0 | 0.00 | 0.00 | 0.00 | 85 | 1017.2 |
| 20260504080500 | 43 | 276 | 0.0 | 0.0 | 0.00 | 0.00 | 0.00 | 85 | 1017.3 |
| 20260504080400 | 43 | 276 | 0.0 | 0.0 | 0.00 | 0.00 | 0.00 | 85 | 1017.2 |
| 20260504080301 | 43 | 276 | 0.0 | 0.0 | 0.00 | 0.00 | 0.00 | 85 | 1017.3 |
| 20260504080200 | 43 | 276 | 0.0 | 0.0 | 0.00 | 0.00 | 0.00 | 85 | 1017.2 |
| 20260504070401 | 43 | 276 | 0.0 | 0.0 | 0.00 | 0.00 | 0.00 | 84 | 1017.1 |
| 20260504070107 | 43 | 276 | 0.0 | 0.0 | 0.00 | 0.00 | 0.00 | 84 | 1017.3 |